Location: Bernadets
(43.3537°N, 0.3167°E)
Time: 18:50:56
(UTC+00:00)

Okean-O - Pass Details

Date: 04 June 2022
Orbit: 638 x 640 km, 98.1° (Epoch: 28 June)

Event Time Altitude Azimuth Distance (km) Brightness Sun altitude
Rises 20:35:33 0° 203° (SSW) 2,930 5.8 -9.5°
Reaches altitude 10° 20:38:16 10° 220° (SW) 2,026 5.2 -9.9°
Maximum altitude 20:41:28 20° 267° (W) 1,501 5.1 -10.3°
Drops below altitude 10° 20:44:41 10° 314° (NW) 2,037 6.8 -10.7°
Sets 20:47:27 0° 332° (NNW) 2,951 7.7 -11.1°
